AKU312 YSSY-NZCH

Flight info

Callsign AKU312
Flight time N/A
Altitude 39000
Route KEVIN7/16L CAWLY M636 PLUGA N750 VANDA
Aircraft B77L/H-SDE1E2E3FGHIJ2J3J4J5M1RWXY/LB1D1

Departure

Time 2026-05-05 03:03
Airport Sydney Kingsford Smith International Airport (YSSY)

Arrival

Time N/A
Airport Christchurch International Airport (NZCH)
Time Latitude Longitude Altitude Speed Heading
2026-05-05 02:34 -33.93111 151.16773 34 ft 0 kts 257°
2026-05-05 02:46 -33.93109 151.16786 33 ft 2 kts 255°
2026-05-05 02:46 -33.93105 151.16805 32 ft 2 kts 256°
2026-05-05 02:47 -33.93102 151.16824 31 ft 2 kts 258°
2026-05-05 02:47 -33.93098 151.16844 32 ft 2 kts 258°
2026-05-05 02:47 -33.93095 151.16863 33 ft 2 kts 258°
2026-05-05 02:47 -33.93092 151.16883 34 ft 2 kts 256°
2026-05-05 02:48 -33.93084 151.16900 32 ft 2 kts 202°
2026-05-05 02:48 -33.93069 151.16907 32 ft 2 kts 188°
2026-05-05 02:48 -33.93053 151.16909 33 ft 2 kts 179°
2026-05-05 02:48 -33.93037 151.16907 33 ft 2 kts 171°
2026-05-05 02:49 -33.93033 151.16906 34 ft 0 kts 169°
2026-05-05 02:53 -33.93033 151.16907 34 ft 0 kts 169°
2026-05-05 02:53 -33.93034 151.16907 34 ft 0 kts 169°
2026-05-05 02:53 -33.93056 151.16911 34 ft 13 kts 169°
2026-05-05 02:54 -33.93159 151.16936 34 ft 15 kts 169°
2026-05-05 02:54 -33.93250 151.16967 34 ft 11 kts 152°
2026-05-05 02:54 -33.93312 151.17029 33 ft 12 kts 141°
2026-05-05 02:54 -33.93386 151.17071 34 ft 12 kts 165°
2026-05-05 02:55 -33.93431 151.17109 34 ft 1 kts 122°
2026-05-05 02:55 -33.93431 151.17110 34 ft 0 kts 122°
2026-05-05 02:56 -33.93436 151.17122 34 ft 10 kts 112°
2026-05-05 02:56 -33.93412 151.17314 32 ft 28 kts 78°
2026-05-05 02:57 -33.93374 151.17525 34 ft 22 kts 77°
2026-05-05 02:57 -33.93442 151.17590 34 ft 15 kts 189°
2026-05-05 02:57 -33.93559 151.17604 34 ft 23 kts 167°
2026-05-05 02:57 -33.93712 151.17674 34 ft 24 kts 160°
2026-05-05 02:58 -33.93858 151.17753 34 ft 23 kts 142°
2026-05-05 02:58 -33.94013 151.17808 33 ft 23 kts 168°
2026-05-05 02:58 -33.94173 151.17848 34 ft 23 kts 168°
2026-05-05 02:58 -33.94333 151.17891 34 ft 23 kts 167°
2026-05-05 02:59 -33.94484 151.17889 34 ft 21 kts 196°
2026-05-05 02:59 -33.94625 151.17908 34 ft 21 kts 168°
2026-05-05 02:59 -33.94765 151.17944 34 ft 21 kts 168°
2026-05-05 02:59 -33.94905 151.17981 34 ft 21 kts 168°
2026-05-05 03:00 -33.95044 151.18017 35 ft 19 kts 164°
2026-05-05 03:00 -33.95094 151.18132 35 ft 17 kts 80°
2026-05-05 03:00 -33.95070 151.18267 35 ft 17 kts 77°
2026-05-05 03:00 -33.95046 151.18404 35 ft 17 kts 78°
2026-05-05 03:01 -33.95014 151.18581 35 ft 22 kts 78°
2026-05-05 03:01 -33.94984 151.18747 32 ft 19 kts 78°
2026-05-05 03:01 -33.95005 151.18837 28 ft 10 kts 152°
2026-05-05 03:01 -33.95014 151.18840 29 ft 0 kts 165°
2026-05-05 03:02 -33.95150 151.18876 29 ft 66 kts 168°
2026-05-05 03:02 -33.96031 151.19090 68 ft 187 kts 171°
2026-05-05 03:03 -33.97324 151.19422 1514 ft 185 kts 169°
2026-05-05 03:03 -33.98598 151.20050 2484 ft 216 kts 148°
2026-05-05 03:03 -33.99637 151.21545 2991 ft 249 kts 123°
2026-05-05 03:03 -34.00494 151.23424 3988 ft 261 kts 122°
2026-05-05 03:04 -34.01373 151.25368 5034 ft 266 kts 129°
2026-05-05 03:04 -34.02753 151.26850 5930 ft 269 kts 148°
2026-05-05 03:04 -34.04329 151.28179 6879 ft 281 kts 146°
2026-05-05 03:04 -34.05906 151.29612 7995 ft 288 kts 145°
2026-05-05 03:05 -34.07511 151.31128 9038 ft 298 kts 144°
2026-05-05 03:05 -34.09148 151.32713 10058 ft 306 kts 144°
2026-05-05 03:05 -34.10847 151.34372 10793 ft 325 kts 143°
2026-05-05 03:05 -34.12688 151.36188 11090 ft 356 kts 140°
2026-05-05 03:06 -34.14246 151.38633 11541 ft 380 kts 115°
2026-05-05 03:06 -34.15239 151.41632 12355 ft 390 kts 111°
2026-05-05 03:06 -34.16208 151.44720 13426 ft 396 kts 111°
2026-05-05 03:06 -34.17180 151.47808 14475 ft 400 kts 111°
2026-05-05 03:07 -34.18180 151.50962 15534 ft 404 kts 111°
2026-05-05 03:07 -34.19196 151.54141 16568 ft 408 kts 112°
2026-05-05 03:07 -34.20229 151.57351 17565 ft 413 kts 112°
2026-05-05 03:07 -34.21279 151.60604 18522 ft 418 kts 112°
2026-05-05 03:08 -34.22348 151.63911 19303 ft 425 kts 112°
2026-05-05 03:08 -34.23431 151.67265 20041 ft 433 kts 112°
2026-05-05 03:08 -34.24538 151.70691 20783 ft 440 kts 112°
2026-05-05 03:08 -34.25659 151.74167 21546 ft 447 kts 112°
2026-05-05 03:09 -34.26795 151.77698 22308 ft 454 kts 112°
2026-05-05 03:09 -34.27947 151.81279 23063 ft 461 kts 112°
2026-05-05 03:09 -34.29115 151.84917 23786 ft 468 kts 112°
2026-05-05 03:09 -34.30300 151.88612 24371 ft 475 kts 112°
2026-05-05 03:10 -34.31503 151.92366 24960 ft 482 kts 111°
2026-05-05 03:10 -34.32721 151.96119 25534 ft 487 kts 114°
2026-05-05 03:10 -34.34209 151.99832 26079 ft 494 kts 119°
2026-05-05 03:10 -34.35938 152.03457 26638 ft 500 kts 122°
2026-05-05 03:11 -34.37781 152.07058 27208 ft 507 kts 123°
2026-05-05 03:11 -34.39671 152.10696 27768 ft 513 kts 123°
2026-05-05 03:11 -34.41568 152.14393 28307 ft 520 kts 122°
2026-05-05 03:11 -34.43463 152.18161 28859 ft 526 kts 122°
2026-05-05 03:12 -34.44716 152.20694 29203 ft 531 kts 121°
2026-05-05 03:12 -34.46631 152.24616 29734 ft 537 kts 121°
2026-05-05 03:12 -34.48507 152.28498 30224 ft 543 kts 121°
2026-05-05 03:12 -34.50418 152.32471 30654 ft 548 kts 121°
2026-05-05 03:13 -34.52340 152.36476 31120 ft 552 kts 121°
2026-05-05 03:13 -34.54280 152.40518 31563 ft 555 kts 121°
2026-05-05 03:13 -34.56226 152.44570 32003 ft 558 kts 121°
2026-05-05 03:13 -34.58182 152.48642 32514 ft 558 kts 121°
2026-05-05 03:14 -34.60138 152.52717 33081 ft 558 kts 121°
2026-05-05 03:14 -34.62087 152.56781 33655 ft 557 kts 121°
2026-05-05 03:14 -34.64034 152.60843 34182 ft 557 kts 121°
2026-05-05 03:14 -34.65983 152.64917 34660 ft 556 kts 121°
2026-05-05 03:15 -34.67924 152.68976 35180 ft 554 kts 121°
2026-05-05 03:15 -34.69851 152.73013 35701 ft 551 kts 121°
2026-05-05 03:15 -34.71769 152.77037 36210 ft 549 kts 121°
2026-05-05 03:15 -34.73685 152.81059 36689 ft 548 kts 121°
2026-05-05 03:16 -34.75564 152.85009 37148 ft 547 kts 121°
2026-05-05 03:16 -34.77463 152.89006 37612 ft 545 kts 121°
2026-05-05 03:16 -34.79353 152.92990 38083 ft 543 kts 121°
2026-05-05 03:16 -34.81245 152.96979 38532 ft 542 kts 121°
2026-05-05 03:17 -34.83128 153.00956 38921 ft 541 kts 121°
2026-05-05 03:17 -34.85000 153.04913 39120 ft 542 kts 121°
2026-05-05 03:17 -34.86886 153.08904 39074 ft 544 kts 121°
2026-05-05 03:18 -34.90646 153.16876 39079 ft 541 kts 121°
2026-05-05 03:18 -34.94382 153.24817 39084 ft 538 kts 121°
2026-05-05 03:19 -34.99954 153.36692 39082 ft 537 kts 121°
2026-05-05 03:19 -35.03660 153.44612 39079 ft 537 kts 121°
2026-05-05 03:20 -35.07361 153.52540 39075 ft 538 kts 121°
2026-05-05 03:20 -35.11066 153.60494 39073 ft 539 kts 120°
2026-05-05 03:21 -35.14744 153.68410 39074 ft 539 kts 120°
2026-05-05 03:21 -35.18445 153.76394 39072 ft 540 kts 120°
2026-05-05 03:22 -35.22141 153.84385 39070 ft 540 kts 120°
2026-05-05 03:22 -35.25841 153.92405 39067 ft 540 kts 120°
2026-05-05 03:23 -35.29529 154.00417 39065 ft 540 kts 120°
2026-05-05 03:23 -35.33188 154.08384 39063 ft 539 kts 120°
2026-05-05 03:24 -35.36866 154.16410 39064 ft 538 kts 120°
2026-05-05 03:24 -35.40528 154.24421 39063 ft 537 kts 120°
2026-05-05 03:25 -35.44158 154.32382 39060 ft 537 kts 120°
2026-05-05 03:25 -35.47803 154.40393 39058 ft 536 kts 120°
2026-05-05 03:26 -35.51434 154.48394 39060 ft 536 kts 120°
2026-05-05 03:26 -35.55027 154.56330 39059 ft 535 kts 120°
2026-05-05 03:27 -35.58647 154.64343 39056 ft 535 kts 120°
2026-05-05 03:27 -35.62472 154.72178 39061 ft 534 kts 126°
2026-05-05 03:28 -35.66757 154.79598 39059 ft 534 kts 127°
2026-05-05 03:28 -35.71121 154.87032 39058 ft 534 kts 127°
2026-05-05 03:29 -35.75415 154.94438 39052 ft 534 kts 127°
2026-05-05 03:29 -35.79715 155.01936 39051 ft 535 kts 126°
2026-05-05 03:30 -35.84001 155.09444 39049 ft 535 kts 126°
2026-05-05 03:30 -35.88282 155.16954 39048 ft 535 kts 126°
2026-05-05 03:31 -35.92544 155.24442 39047 ft 535 kts 126°
2026-05-05 03:31 -35.96826 155.31980 39046 ft 535 kts 126°
2026-05-05 03:32 -36.01096 155.39512 39044 ft 535 kts 126°
2026-05-05 03:32 -36.05329 155.46996 39043 ft 534 kts 126°
2026-05-05 03:33 -36.09580 155.54530 39042 ft 534 kts 126°
2026-05-05 03:33 -36.13828 155.62072 39038 ft 534 kts 126°
2026-05-05 03:34 -36.18071 155.69625 39037 ft 533 kts 126°
2026-05-05 03:34 -36.22306 155.77179 39038 ft 533 kts 126°
2026-05-05 03:35 -36.26528 155.84726 39036 ft 533 kts 125°
2026-05-05 03:35 -36.30722 155.92239 39033 ft 532 kts 125°
2026-05-05 03:36 -36.34933 155.99800 39032 ft 532 kts 125°
2026-05-05 03:36 -36.39133 156.07358 39033 ft 532 kts 125°
2026-05-05 03:37 -36.43328 156.14923 39035 ft 531 kts 125°
2026-05-05 03:37 -36.47515 156.22492 39036 ft 531 kts 125°
2026-05-05 03:38 -36.51695 156.30063 39033 ft 531 kts 124°
2026-05-05 03:38 -36.55853 156.37613 39033 ft 531 kts 124°
2026-05-05 03:39 -36.60032 156.45217 39035 ft 531 kts 124°
2026-05-05 03:39 -36.64200 156.52817 39033 ft 532 kts 124°
2026-05-05 03:40 -36.68373 156.60444 39030 ft 532 kts 124°
2026-05-05 03:40 -36.72524 156.68048 39034 ft 533 kts 124°
2026-05-05 03:41 -36.76689 156.75695 39033 ft 533 kts 124°
2026-05-05 03:41 -36.80837 156.83328 39036 ft 533 kts 124°
2026-05-05 03:42 -36.85013 156.91030 39026 ft 534 kts 124°
2026-05-05 03:42 -36.89145 156.98668 39037 ft 534 kts 124°
2026-05-05 03:43 -36.93313 157.06391 39039 ft 534 kts 124°
2026-05-05 03:43 -36.97444 157.14062 39031 ft 534 kts 124°
2026-05-05 03:44 -37.01595 157.21788 39018 ft 534 kts 124°
2026-05-05 03:44 -37.05742 157.29524 39035 ft 534 kts 124°
2026-05-05 03:45 -37.09891 157.37284 39036 ft 534 kts 124°
2026-05-05 03:45 -37.13999 157.44983 39034 ft 534 kts 124°
2026-05-05 03:46 -37.18109 157.52703 39037 ft 533 kts 124°
2026-05-05 03:46 -37.22234 157.60470 39034 ft 533 kts 124°
2026-05-05 03:47 -37.26343 157.68225 39035 ft 533 kts 124°
2026-05-05 03:47 -37.30438 157.75970 39036 ft 532 kts 123°
2026-05-05 03:48 -37.34529 157.83728 39034 ft 532 kts 123°
2026-05-05 03:48 -37.38613 157.91490 39034 ft 532 kts 123°
2026-05-05 03:49 -37.42662 157.99204 39037 ft 531 kts 123°
2026-05-05 03:49 -37.46740 158.06991 39037 ft 531 kts 123°
2026-05-05 03:50 -37.50784 158.14730 39038 ft 531 kts 123°
2026-05-05 03:50 -37.54840 158.22510 39040 ft 531 kts 123°
2026-05-05 03:51 -37.58890 158.30298 39042 ft 531 kts 123°
2026-05-05 03:51 -37.62930 158.38089 39044 ft 531 kts 123°
2026-05-05 03:52 -37.66941 158.45843 39043 ft 531 kts 123°
2026-05-05 03:52 -37.70981 158.53669 39048 ft 532 kts 123°
2026-05-05 03:53 -37.75019 158.61512 39051 ft 532 kts 123°
2026-05-05 03:53 -37.79055 158.69370 39055 ft 533 kts 123°
2026-05-05 03:54 -37.83087 158.77237 39056 ft 533 kts 123°
2026-05-05 03:54 -37.87109 158.85104 39061 ft 534 kts 123°
2026-05-05 03:55 -37.91140 158.93008 39061 ft 534 kts 123°
2026-05-05 03:55 -37.95169 159.00926 39061 ft 534 kts 123°
2026-05-05 03:56 -37.99162 159.08795 39064 ft 534 kts 123°
2026-05-05 03:56 -38.03185 159.16739 39069 ft 533 kts 123°
2026-05-05 03:57 -38.07184 159.24656 39073 ft 532 kts 123°
2026-05-05 03:57 -38.11167 159.32562 39058 ft 532 kts 123°
2026-05-05 03:58 -38.15149 159.40483 39076 ft 531 kts 123°
2026-05-05 03:58 -38.18448 159.47060 39066 ft 530 kts 123°
2026-05-05 03:59 -38.22406 159.54970 39069 ft 530 kts 123°
2026-05-05 03:59 -38.26366 159.62903 39089 ft 530 kts 123°
2026-05-05 04:00 -38.30290 159.70782 39086 ft 530 kts 123°
2026-05-05 04:00 -38.34227 159.78707 39089 ft 530 kts 123°
2026-05-05 04:01 -38.38172 159.86666 39091 ft 531 kts 123°
2026-05-05 04:01 -38.42113 159.94638 39091 ft 530 kts 123°
2026-05-05 04:02 -38.46047 160.02617 39094 ft 530 kts 123°
2026-05-05 04:02 -38.49937 160.10523 39076 ft 528 kts 123°
2026-05-05 04:03 -38.53834 160.18465 39098 ft 525 kts 123°
2026-05-05 04:03 -38.57699 160.26360 39101 ft 523 kts 123°
2026-05-05 04:04 -38.61542 160.34229 39100 ft 520 kts 123°
2026-05-05 04:04 -38.65366 160.42080 39102 ft 519 kts 123°
2026-05-05 04:05 -38.69148 160.49861 39107 ft 518 kts 123°
2026-05-05 04:05 -38.72943 160.57689 39111 ft 517 kts 122°
2026-05-05 04:06 -38.76727 160.65515 39112 ft 516 kts 122°
2026-05-05 04:06 -38.80503 160.73340 39120 ft 516 kts 122°
2026-05-05 04:07 -38.84271 160.81170 39121 ft 515 kts 122°
2026-05-05 04:07 -38.88031 160.89004 39121 ft 515 kts 122°
2026-05-05 04:08 -38.91780 160.96832 39123 ft 514 kts 122°
2026-05-05 04:08 -38.95521 161.04662 39122 ft 514 kts 122°
2026-05-05 04:09 -38.99251 161.12490 39128 ft 513 kts 122°
2026-05-05 04:09 -39.02966 161.20303 39134 ft 512 kts 122°
2026-05-05 04:10 -39.06670 161.28115 39136 ft 511 kts 122°
2026-05-05 04:10 -39.10361 161.35917 39138 ft 510 kts 122°
2026-05-05 04:11 -39.14042 161.43716 39142 ft 509 kts 122°
2026-05-05 04:11 -39.17686 161.51457 39142 ft 508 kts 122°
2026-05-05 04:12 -39.21340 161.59239 39144 ft 507 kts 122°
2026-05-05 04:12 -39.24983 161.67015 39150 ft 505 kts 122°
2026-05-05 04:13 -39.28610 161.74778 39155 ft 504 kts 122°
2026-05-05 04:13 -39.32225 161.82533 39155 ft 503 kts 122°
2026-05-05 04:14 -39.35828 161.90281 39158 ft 502 kts 122°
2026-05-05 04:14 -39.39412 161.98007 39160 ft 501 kts 121°
2026-05-05 04:15 -39.42993 162.05746 39163 ft 500 kts 121°
2026-05-05 04:15 -39.46556 162.13466 39168 ft 499 kts 121°
2026-05-05 04:16 -39.50109 162.21182 39172 ft 498 kts 121°
2026-05-05 04:16 -39.53626 162.28838 39176 ft 497 kts 121°
2026-05-05 04:17 -39.57158 162.36547 39179 ft 497 kts 121°
2026-05-05 04:17 -39.60678 162.44249 39182 ft 496 kts 121°
2026-05-05 04:18 -39.64189 162.51950 39188 ft 496 kts 121°
2026-05-05 04:18 -39.67693 162.59654 39193 ft 495 kts 121°
2026-05-05 04:19 -39.71190 162.67360 39187 ft 495 kts 121°
2026-05-05 04:19 -39.74676 162.75064 39198 ft 494 kts 121°
2026-05-05 04:20 -39.78153 162.82766 39200 ft 494 kts 121°
2026-05-05 04:20 -39.81625 162.90477 39204 ft 493 kts 121°
2026-05-05 04:21 -39.85087 162.98182 39206 ft 493 kts 121°
2026-05-05 04:21 -39.88524 163.05853 39210 ft 493 kts 121°
2026-05-05 04:22 -39.91980 163.13587 39214 ft 494 kts 121°
2026-05-05 04:22 -39.95427 163.21323 39213 ft 494 kts 121°
2026-05-05 04:23 -39.98869 163.29068 39219 ft 494 kts 120°
2026-05-05 04:23 -40.02303 163.36815 39218 ft 494 kts 120°
2026-05-05 04:24 -40.05736 163.44577 39223 ft 494 kts 120°
2026-05-05 04:25 -40.10883 163.56252 39225 ft 494 kts 120°
2026-05-05 04:25 -40.14280 163.63983 39226 ft 493 kts 120°
2026-05-05 04:26 -40.17695 163.71773 39232 ft 493 kts 120°
2026-05-05 04:26 -40.21103 163.79567 39233 ft 493 kts 120°
2026-05-05 04:27 -40.24500 163.87357 39235 ft 493 kts 120°
2026-05-05 04:27 -40.27892 163.95154 39236 ft 492 kts 120°
2026-05-05 04:28 -40.31273 164.02945 39243 ft 492 kts 120°
2026-05-05 04:28 -40.34645 164.10736 39244 ft 492 kts 120°
2026-05-05 04:29 -40.38013 164.18537 39247 ft 491 kts 120°
2026-05-05 04:29 -40.41372 164.26339 39248 ft 491 kts 120°
2026-05-05 04:30 -40.44728 164.34152 39252 ft 491 kts 120°
2026-05-05 04:30 -40.48051 164.41908 39253 ft 491 kts 120°
2026-05-05 04:31 -40.51390 164.49722 39256 ft 490 kts 120°
2026-05-05 04:31 -40.54722 164.57539 39259 ft 490 kts 120°
2026-05-05 04:32 -40.58045 164.65356 39263 ft 489 kts 120°
2026-05-05 04:32 -40.61358 164.73171 39266 ft 489 kts 120°
2026-05-05 04:33 -40.64664 164.80987 39270 ft 488 kts 120°
2026-05-05 04:33 -40.67966 164.88815 39272 ft 488 kts 120°
2026-05-05 04:34 -40.71239 164.96594 39282 ft 488 kts 120°
2026-05-05 04:34 -40.74531 165.04438 39279 ft 488 kts 120°
2026-05-05 04:35 -40.77824 165.12306 39282 ft 488 kts 119°
2026-05-05 04:35 -40.81087 165.20122 39285 ft 489 kts 120°
2026-05-05 04:36 -40.84363 165.27989 39286 ft 489 kts 120°
2026-05-05 04:36 -40.87641 165.35882 39286 ft 490 kts 120°
2026-05-05 04:37 -40.90918 165.43794 39293 ft 490 kts 120°
2026-05-05 04:37 -40.94184 165.51700 39294 ft 490 kts 120°
2026-05-05 04:38 -40.97449 165.59623 39299 ft 490 kts 120°
2026-05-05 04:38 -41.00709 165.67556 39304 ft 490 kts 120°
2026-05-05 04:39 -41.03958 165.75483 39302 ft 490 kts 120°
2026-05-05 04:39 -41.07179 165.83365 39307 ft 489 kts 120°
2026-05-05 04:40 -41.10410 165.91291 39311 ft 488 kts 119°
2026-05-05 04:40 -41.13627 165.99204 39313 ft 487 kts 119°
2026-05-05 04:41 -41.16839 166.07126 39318 ft 487 kts 119°
2026-05-05 04:41 -41.20037 166.15032 39323 ft 486 kts 119°
2026-05-05 04:42 -41.23229 166.22946 39325 ft 485 kts 119°
2026-05-05 04:42 -41.26408 166.30848 39327 ft 484 kts 119°
2026-05-05 04:43 -41.29577 166.38748 39327 ft 484 kts 119°
2026-05-05 04:43 -41.32721 166.46606 39333 ft 484 kts 119°
2026-05-05 04:44 -41.35873 166.54504 39337 ft 483 kts 119°
2026-05-05 04:44 -41.39019 166.62409 39340 ft 483 kts 119°
2026-05-05 04:45 -41.42156 166.70312 39348 ft 483 kts 119°
2026-05-05 04:45 -41.45291 166.78231 39349 ft 482 kts 119°
2026-05-05 04:46 -41.47890 166.84811 39350 ft 482 kts 119°
2026-05-05 04:46 -41.51004 166.92719 39355 ft 481 kts 119°
2026-05-05 04:47 -41.54638 167.01975 39356 ft 481 kts 119°
2026-05-05 04:47 -41.57214 167.08550 39357 ft 481 kts 119°
2026-05-05 04:48 -41.60307 167.16466 39368 ft 481 kts 119°
2026-05-05 04:48 -41.63394 167.24390 39365 ft 480 kts 119°
2026-05-05 04:49 -41.66473 167.32312 39368 ft 480 kts 119°
2026-05-05 04:49 -41.69548 167.40247 39370 ft 480 kts 118°
2026-05-05 04:50 -41.72618 167.48191 39378 ft 480 kts 118°
2026-05-05 04:50 -41.75677 167.56127 39377 ft 480 kts 118°
2026-05-05 04:51 -41.78731 167.64073 39383 ft 479 kts 118°
2026-05-05 04:51 -41.81757 167.71967 39381 ft 479 kts 118°
2026-05-05 04:52 -41.84790 167.79903 39390 ft 478 kts 118°
2026-05-05 04:52 -41.87817 167.87843 39387 ft 478 kts 118°
2026-05-05 04:53 -41.90839 167.95792 39392 ft 477 kts 118°
2026-05-05 04:53 -41.93849 168.03732 39395 ft 477 kts 118°
2026-05-05 04:54 -41.96862 168.11701 39405 ft 477 kts 118°
2026-05-05 04:54 -41.99861 168.19655 39407 ft 477 kts 118°
2026-05-05 04:55 -42.02859 168.27630 39403 ft 477 kts 118°
2026-05-05 04:55 -42.05850 168.35609 39404 ft 477 kts 118°
2026-05-05 04:56 -42.08837 168.43598 39407 ft 478 kts 118°
2026-05-05 04:56 -42.11795 168.51531 39409 ft 478 kts 118°
2026-05-05 04:57 -42.14771 168.59535 39415 ft 478 kts 118°
2026-05-05 04:57 -42.17744 168.67554 39412 ft 478 kts 118°
2026-05-05 04:58 -42.20709 168.75576 39424 ft 478 kts 118°
2026-05-05 04:58 -42.23671 168.83608 39422 ft 478 kts 118°
2026-05-05 04:59 -42.26623 168.91638 39425 ft 478 kts 118°
2026-05-05 04:59 -42.29573 168.99686 39428 ft 478 kts 118°
2026-05-05 05:00 -42.32520 169.07749 39429 ft 478 kts 118°
2026-05-05 05:00 -42.35461 169.15820 39435 ft 478 kts 118°
2026-05-05 05:01 -42.38375 169.23838 39436 ft 478 kts 118°
2026-05-05 05:01 -42.41308 169.31927 39437 ft 479 kts 118°
2026-05-05 05:02 -42.44009 169.40169 39447 ft 480 kts 112°
2026-05-05 05:02 -42.46272 169.48693 39439 ft 481 kts 111°
2026-05-05 05:03 -42.48496 169.57243 39451 ft 481 kts 111°
2026-05-05 05:03 -42.50767 169.65738 39238 ft 477 kts 112°
2026-05-05 05:03 -42.51891 169.69890 38797 ft 473 kts 112°
2026-05-05 05:04 -42.53019 169.74051 38365 ft 467 kts 112°
2026-05-05 05:04 -42.54131 169.78150 37935 ft 461 kts 112°
2026-05-05 05:04 -42.55233 169.82217 37505 ft 456 kts 112°
2026-05-05 05:04 -42.56318 169.86233 37070 ft 450 kts 112°
2026-05-05 05:05 -42.57389 169.90207 36668 ft 446 kts 112°
2026-05-05 05:05 -42.58446 169.94134 36255 ft 441 kts 112°
2026-05-05 05:05 -42.59491 169.98027 35831 ft 437 kts 111°
2026-05-05 05:05 -42.60527 170.01889 35406 ft 434 kts 111°
2026-05-05 05:06 -42.61554 170.05728 34971 ft 430 kts 111°
2026-05-05 05:06 -42.62573 170.09541 34557 ft 427 kts 111°
2026-05-05 05:06 -42.63582 170.13320 34094 ft 425 kts 111°
2026-05-05 05:06 -42.64583 170.17077 33636 ft 421 kts 111°
2026-05-05 05:07 -42.65573 170.20802 33203 ft 418 kts 111°
2026-05-05 05:07 -42.66554 170.24497 32780 ft 414 kts 111°
2026-05-05 05:07 -42.67525 170.28158 32375 ft 410 kts 111°
2026-05-05 05:07 -42.68489 170.31797 31970 ft 407 kts 111°
2026-05-05 05:08 -42.69442 170.35403 31561 ft 404 kts 111°
2026-05-05 05:08 -42.70386 170.38981 31165 ft 401 kts 110°
2026-05-05 05:08 -42.71324 170.42539 30760 ft 398 kts 110°
2026-05-05 05:08 -42.72242 170.46024 30335 ft 396 kts 110°
2026-05-05 05:09 -42.73166 170.49541 29875 ft 393 kts 110°
2026-05-05 05:09 -42.74081 170.53027 29465 ft 390 kts 110°
2026-05-05 05:09 -42.74986 170.56482 29068 ft 386 kts 110°
2026-05-05 05:09 -42.75883 170.59912 28656 ft 383 kts 110°
2026-05-05 05:10 -42.76771 170.63310 28270 ft 380 kts 110°
2026-05-05 05:10 -42.77651 170.66684 27875 ft 377 kts 110°
2026-05-05 05:10 -42.78525 170.70036 27490 ft 374 kts 110°
2026-05-05 05:10 -42.79390 170.73362 27108 ft 371 kts 110°
2026-05-05 05:11 -42.80248 170.76664 26732 ft 369 kts 110°
2026-05-05 05:11 -42.81101 170.79951 26353 ft 367 kts 110°
2026-05-05 05:11 -42.81947 170.83216 25978 ft 365 kts 110°
2026-05-05 05:11 -42.82788 170.86464 25616 ft 363 kts 109°
2026-05-05 05:12 -42.83624 170.89697 25258 ft 361 kts 109°
2026-05-05 05:12 -42.84455 170.92918 24884 ft 359 kts 109°
2026-05-05 05:12 -42.85280 170.96121 24528 ft 358 kts 109°
2026-05-05 05:12 -42.86095 170.99286 24156 ft 357 kts 109°
2026-05-05 05:13 -42.86914 171.02475 23734 ft 356 kts 109°
2026-05-05 05:13 -42.87732 171.05661 23326 ft 354 kts 109°
2026-05-05 05:13 -42.88541 171.08818 22949 ft 352 kts 109°
2026-05-05 05:13 -42.89347 171.11966 22571 ft 350 kts 109°
2026-05-05 05:14 -42.90146 171.15090 22200 ft 348 kts 109°
2026-05-05 05:14 -42.90940 171.18204 21829 ft 346 kts 109°
2026-05-05 05:14 -42.91730 171.21300 21467 ft 345 kts 109°
2026-05-05 05:14 -42.92516 171.24388 21096 ft 344 kts 109°
2026-05-05 05:15 -42.93299 171.27465 20716 ft 343 kts 108°
2026-05-05 05:15 -42.94077 171.30529 20359 ft 342 kts 108°
2026-05-05 05:15 -42.94854 171.33591 19995 ft 341 kts 108°
2026-05-05 05:15 -42.95629 171.36655 19630 ft 341 kts 108°
2026-05-05 05:16 -42.96403 171.39716 19260 ft 341 kts 108°
2026-05-05 05:16 -42.97170 171.42749 18896 ft 341 kts 108°
2026-05-05 05:16 -42.97945 171.45819 18481 ft 342 kts 108°
2026-05-05 05:16 -42.98722 171.48902 18068 ft 342 kts 108°
2026-05-05 05:17 -42.99578 171.51915 17669 ft 340 kts 116°
2026-05-05 05:17 -43.00769 171.54700 17302 ft 339 kts 122°
2026-05-05 05:17 -43.02080 171.57373 16925 ft 339 kts 123°
2026-05-05 05:17 -43.03405 171.60036 16542 ft 338 kts 123°
2026-05-05 05:18 -43.04714 171.62708 16177 ft 338 kts 123°
2026-05-05 05:18 -43.06009 171.65402 15782 ft 338 kts 122°
2026-05-05 05:18 -43.07274 171.68071 15418 ft 339 kts 122°
2026-05-05 05:18 -43.08546 171.70777 15052 ft 339 kts 122°
2026-05-05 05:19 -43.09818 171.73495 14667 ft 340 kts 122°
2026-05-05 05:19 -43.11091 171.76220 14309 ft 340 kts 122°
2026-05-05 05:19 -43.12366 171.78949 13901 ft 340 kts 122°
2026-05-05 05:19 -43.13731 171.81569 13476 ft 336 kts 132°
2026-05-05 05:20 -43.15403 171.83801 13064 ft 329 kts 139°
2026-05-05 05:20 -43.17094 171.85792 12449 ft 316 kts 141°
2026-05-05 05:20 -43.18732 171.87697 12061 ft 297 kts 140°
2026-05-05 05:20 -43.20240 171.89483 11711 ft 281 kts 140°
2026-05-05 05:21 -43.21704 171.91244 11415 ft 284 kts 139°
2026-05-05 05:21 -43.23206 171.93074 11117 ft 296 kts 139°
2026-05-05 05:21 -43.24768 171.94992 10777 ft 305 kts 139°
2026-05-05 05:21 -43.26358 171.96958 10423 ft 307 kts 139°
2026-05-05 05:22 -43.27931 171.98908 10139 ft 300 kts 139°
2026-05-05 05:22 -43.29463 172.00767 9999 ft 288 kts 143°
2026-05-05 05:22 -43.31096 172.02302 9660 ft 282 kts 150°
2026-05-05 05:22 -43.32768 172.03674 9344 ft 277 kts 151°
2026-05-05 05:23 -43.34412 172.05008 9034 ft 272 kts 150°
2026-05-05 05:23 -43.36030 172.06341 8720 ft 268 kts 150°
2026-05-05 05:23 -43.37618 172.07666 8457 ft 268 kts 150°
2026-05-05 05:23 -43.39222 172.09018 8191 ft 274 kts 149°
2026-05-05 05:24 -43.40867 172.10415 7898 ft 280 kts 149°
2026-05-05 05:24 -43.42528 172.11831 7560 ft 280 kts 149°
2026-05-05 05:24 -43.44174 172.13239 7230 ft 277 kts 149°
2026-05-05 05:24 -43.45660 172.14510 6940 ft 273 kts 149°
2026-05-05 05:25 -43.47240 172.15864 6662 ft 271 kts 149°
2026-05-05 05:25 -43.48867 172.17257 6374 ft 272 kts 149°
2026-05-05 05:25 -43.50463 172.18625 6074 ft 269 kts 149°
2026-05-05 05:25 -43.52033 172.19972 5823 ft 270 kts 149°
2026-05-05 05:26 -43.53653 172.21362 5545 ft 271 kts 149°
2026-05-05 05:26 -43.55205 172.22754 5267 ft 269 kts 143°
2026-05-05 05:26 -43.56641 172.24406 4992 ft 268 kts 139°
2026-05-05 05:26 -43.58036 172.26111 4717 ft 266 kts 139°
2026-05-05 05:27 -43.59419 172.27782 4443 ft 260 kts 139°
2026-05-05 05:27 -43.60776 172.29402 4171 ft 255 kts 139°
2026-05-05 05:27 -43.63368 172.32546 3637 ft 240 kts 130°
2026-05-05 05:28 -43.64045 172.34546 3435 ft 227 kts 94°
2026-05-05 05:28 -43.63782 172.36601 3218 ft 213 kts 58°
2026-05-05 05:28 -43.62770 172.37937 3065 ft 194 kts 27°
2026-05-05 05:28 -43.61631 172.38863 2998 ft 187 kts 31°
2026-05-05 05:29 -43.60581 172.39823 2881 ft 178 kts 33°
2026-05-05 05:29 -43.59614 172.40814 2744 ft 173 kts 36°
2026-05-05 05:29 -43.58701 172.41845 2482 ft 165 kts 38°
2026-05-05 05:29 -43.57838 172.42842 2273 ft 158 kts 38°
2026-05-05 05:30 -43.57039 172.43771 2072 ft 143 kts 38°
2026-05-05 05:30 -43.56312 172.44616 1864 ft 133 kts 38°
2026-05-05 05:30 -43.55599 172.45443 1731 ft 134 kts 38°
2026-05-05 05:30 -43.54889 172.46267 1541 ft 133 kts 39°
2026-05-05 05:31 -43.54187 172.47082 1343 ft 132 kts 38°
2026-05-05 05:31 -43.53485 172.47896 1155 ft 132 kts 40°
2026-05-05 05:31 -43.52788 172.48703 960 ft 130 kts 39°
2026-05-05 05:31 -43.52101 172.49501 784 ft 130 kts 40°
2026-05-05 05:32 -43.51405 172.50295 590 ft 128 kts 39°
2026-05-05 05:32 -43.50725 172.51093 394 ft 128 kts 40°
2026-05-05 05:32 -43.50276 172.51616 305 ft 127 kts 39°